EW9559 Weather Reports


Display with metric or nautical units.
time (UTC)temp
F
wind
direction
speed
MPH
gust
MPH
rain 1hr
in
rain 24hr
in
rain mn
in
humidity
%
barometer
mb
20260502230038 83 229 0.0 2.0 0.00 0.00 0.00 38 1015.9
20260502223107 84 205 0.0 2.0 0.00 0.00 0.00 37 1016.4
20260502221530 82 187 0.0 5.0 0.00 0.00 0.00 39 1016.6
20260502220033 82 196 0.0 2.0 0.00 0.00 0.00 42 1016.7
20260502214531 79 211 0.0 1.0 0.00 0.00 0.00 48 1016.8
20260502213146 76 218 0.0 2.0 0.00 0.00 0.00 54 1017.1
20260502210104 72 328 0.0 4.0 0.00 0.00 0.00 57 1017.4
20260502204530 75 327 0.0 2.0 0.00 0.00 0.00 53 1017.4
20260502203026 75 204 0.0 1.0 0.00 0.00 0.00 56 1017.6
20260502201530 73 199 0.0 2.0 0.00 0.00 0.00 65 1017.9
20260502194533 62 292 0.0 0.0 0.00 0.00 0.00 76 1018.1
20260502193033 62 7 0.0 2.0 0.00 0.00 0.00 73 1018.4
20260502190027 65 284 0.0 1.0 0.00 0.00 0.00 69 1018.9
20260502184532 65 358 0.0 1.0 0.00 0.00 0.00 69 1019.0
20260502183041 66 316 0.0 1.0 0.00 0.00 0.00 68 1019.0
20260502181530 67 302 0.0 2.0 0.00 0.00 0.00 66 1019.0
20260502180104 0 0 0.0 0.0 0.00 0.00 0.00 100
20260502163029 61 225 0.0 1.0 0.00 0.00 0.00 74 1019.4
20260502161531 60 225 0.0 0.0 0.00 0.00 0.00 77 1019.4
20260502151603 56 204 0.0 3.0 0.00 0.00 0.00 83 1019.1
20260502123034 54 247 0.0 1.0 0.00 0.00 0.00 81 1017.8
20260502121530 54 247 0.0 1.0 0.00 0.00 0.00 80 1017.9
20260502111604 56 230 0.0 3.0 0.00 0.00 0.00 77 1017.8
20260502101530 57 238 1.0 7.0 0.00 0.00 0.00 73 1018.5
20260502100104 57 253 1.0 6.0 0.00 0.00 0.00 73 1018.6
20260502080105 59 247 0.0 2.0 0.00 0.00 0.00 68 1018.6
20260502071531 61 238 0.0 4.0 0.00 0.00 0.00 63 1018.7
20260502070030 61 234 0.0 5.0 0.00 0.00 0.00 63 1018.7
20260502064648 61 264 0.0 4.0 0.00 0.00 0.00 64 1018.9
20260502063029 62 268 0.0 3.0 0.00 0.00 0.00 62 1018.9
20260502060031 63 249 1.0 6.0 0.00 0.00 0.00 61 1018.6
20260502054531 63 256 0.0 7.0 0.00 0.00 0.00 60 1018.3
20260502053030 64 258 0.0 4.0 0.00 0.00 0.00 60 1018.6
20260502051531 64 247 0.0 4.0 0.00 0.00 0.00 59 1018.5
20260502044533 64 251 0.0 3.0 0.00 0.00 0.00 59 1018.2
20260502043105 64 255 0.0 8.0 0.00 0.00 0.00 59 1017.8
20260502041538 65 264 0.0 5.0 0.00 0.00 0.00 59 1017.6
20260502033031 66 238 0.0 5.0 0.00 0.00 0.00 56 1017.5
20260502031528 66 241 1.0 6.0 0.00 0.00 0.00 55 1017.2
20260502030145 67 263 1.0 7.0 0.00 0.00 0.00 54 1016.8
20260502024533 67 273 1.0 5.0 0.00 0.00 0.00 53 1016.5
20260502023031 68 275 0.0 7.0 0.00 0.00 0.00 52 1016.3
20260502021602 69 268 1.0 7.0 0.00 0.00 0.00 51 1016.2
20260502020103 71 272 0.0 4.0 0.00 0.00 0.00 48 1016.2
20260502013030 75 265 0.0 8.0 0.00 0.00 0.00 43 1016.1
20260502011602 77 267 0.0 3.0 0.00 0.00 0.00 40 1016.0
20260502010030 78 273 0.0 3.0 0.00 0.00 0.00 37 1016.0
20260502004528 79 284 0.0 0.0 0.00 0.00 0.00 35 1016.1
20260502003031 80 308 0.0 1.0 0.00 0.00 0.00 32 1016.3
20260502001605 82 303 0.0 5.0 0.00 0.00 0.00 32 1016.4
20260502000106 81 258 0.0 2.0 0.00 0.00 0.00 32 1016.4
20260501234526 80 296 0.0 2.0 0.00 0.00 0.00 32 1016.6
20260501233106 80 293 0.0 0.0 0.00 0.00 0.00 33 1016.8